Location: ???????
(56.2167°N, 38.0500°E)
Time: 05:13:17
(UTC+00:00)

DELTA 2 DEB (DPAF) - Pass Details

Date: 19 May 2025
Orbit: 538 x 548 km, 98.4° (Epoch: 19 June)

Event Time Altitude Azimuth Distance (km) Brightness Sun altitude
Rises 19:27:38 0° 18° (NNE) 2,736 8.1 -9.9°
Reaches altitude 10° 19:29:48 10° 23° (NNE) 1,835 7.1 -10.1°
Maximum altitude 19:33:42 55° 102° (ESE) 661 4.0 -10.3°
Enters shadow 19:37:10 13° 180° (S) 1,656 5.7 -10.5°
